SCCF

El Loa Airport

Airport
ICAO code
SCCF
IATA Code
CJC
Summary
ICAO Region
CARSAM
ICAO Territory
Location

Calama, Antofagasta

Serving
Calama
Elevation
7543 ft
Coordinates
22° 29' 53" S , 68° 54' 13" W
KCC
Metar
SCCF 200300Z 12010KT CAVOK 09/M16 Q1028

Airport serving Calama in northern Chile.

Climatology

Cold desert climate (Köppen climate classification BWk)

Runways

Designator Length Width Surface Rops
10/28 2889 30 ASP No/No

Airport map

Aerial View

SKYbrary Partners:

Safety knowledge contributed by: